Location: Woodhurst
(52.3667°N, 0.0667°W)
Time: 23:53:29
(UTC+00:00)

SeaSat 1 - Pass Details

Date: 19 May 2025
Orbit: 738 x 740 km, 108.0° (Epoch: 18 June)

Event Time Altitude Azimuth Distance (km) Brightness Sun altitude
Exits shadow 23:16:21 15° 222° (SW) 1,944 4.2 -17.1°
Maximum altitude 23:18:36 19° 255° (WSW) 1,695 4.2 -17.2°
Drops below altitude 10° 23:22:07 10° 301° (WNW) 2,258 5.5 -17.3°
Sets 23:25:01 0° 319° (NW) 3,187 6.7 -17.3°
